K4SGK Weather Reports


time (UTC)temp
F
wind
direction
speed
knots
gust
knots
rain 1hr
in
rain 24hr
in
rain mn
in
humidity
%
barometer
mb
20260903101004 71 232 0.0 0.0 0.00 0.00 0.00 100 1013.3
20260903100004 72 232 0.0 0.9 0.00 0.00 0.00 100 1013.3
20260903095004 72 232 0.0 0.9 0.00 0.00 0.00 99 1013.3
20260903093004 72 232 0.0 0.9 0.00 0.00 0.00 99 1013.3
20260903092005 72 232 0.0 0.9 0.00 0.00 0.00 99 1013.3
20260903091006 72 232 0.0 0.9 0.00 0.00 0.00 99 1013.3
20260903090004 72 232 0.0 0.0 0.00 0.00 0.00 99 1013.2
20260903085004 72 232 0.0 0.9 0.00 0.00 0.00 98 1013.2
20260903084004 72 232 0.0 0.9 0.00 0.00 0.00 98 1013.0
20260903083004 73 232 0.0 0.9 0.00 0.00 0.00 98 1012.9
20260903082004 73 232 0.0 0.9 0.00 0.00 0.00 98 1012.8
20260903081004 73 232 0.0 0.9 0.00 0.00 0.00 98 1012.8
20260903080005 73 232 0.0 0.0 0.00 0.00 0.00 98 1012.8
20260903075005 73 232 0.0 0.0 0.00 0.00 0.00 98 1012.8
20260903074005 73 232 0.0 0.0 0.00 0.00 0.00 97 1012.8
20260903073005 73 232 0.0 0.9 0.00 0.00 0.00 96 1012.8
20260903072005 73 232 0.0 0.9 0.00 0.00 0.00 96 1012.8
20260903071005 73 232 0.0 0.9 0.00 0.00 0.00 96 1012.8
20260903070005 73 232 0.0 1.7 0.00 0.00 0.00 96 1012.8
20260903065005 73 232 0.0 0.9 0.00 0.00 0.00 96 1012.9
20260903064005 74 232 0.0 0.9 0.00 0.00 0.00 96 1012.8
20260903063005 74 232 0.0 0.0 0.00 0.00 0.00 95 1012.9
20260903062005 74 232 0.0 0.0 0.00 0.00 0.00 95 1012.9
20260903060004 74 232 0.0 0.0 0.00 0.00 0.00 95 1012.8
20260903054004 74 232 0.0 0.9 0.00 0.00 0.00 94 1012.9
20260903052004 75 232 0.9 0.9 0.00 0.00 0.00 94 1012.9
20260903051004 75 232 0.0 0.0 0.00 0.00 0.00 94 1013.0
20260903050004 75 232 0.0 0.9 0.00 0.00 0.00 94 1013.0
20260903043004 75 232 0.0 0.0 0.00 0.00 0.00 92 1013.0
20260903042004 75 232 0.0 0.9 0.00 0.00 0.00 92 1013.0
20260903041005 76 232 0.0 0.9 0.00 0.00 0.00 92 1013.1
20260903035004 76 232 0.0 0.9 0.00 0.00 0.00 92 1013.2
20260903034004 76 232 0.0 0.9 0.00 0.00 0.00 91 1013.2
20260903033004 77 232 0.0 0.9 0.00 0.00 0.00 90 1013.3
20260903031004 77 232 0.0 0.0 0.00 0.00 0.00 88 1013.2
20260903030004 78 232 0.0 0.9 0.00 0.00 0.00 88 1013.2
20260903025005 78 232 0.9 0.9 0.00 0.00 0.00 89 1013.3
20260903023004 78 232 0.0 0.0 0.00 0.00 0.00 86 1013.2
20260903022004 78 232 0.0 0.0 0.00 0.00 0.00 85 1013.2
20260903021004 79 232 0.0 0.9 0.00 0.00 0.00 83 1013.2
20260903020004 79 232 0.0 0.0 0.00 0.00 0.00 82 1013.2
20260903015004 80 232 0.0 0.9 0.00 0.00 0.00 79 1013.1
20260903014005 80 232 0.0 0.9 0.00 0.00 0.00 77 1012.9
20260903012004 81 232 0.0 0.9 0.00 0.00 0.00 74 1012.8
20260903011004 81 232 0.9 0.9 0.00 0.00 0.00 72 1012.7
20260903010004 82 232 0.0 0.9 0.00 0.00 0.00 71 1012.7
20260903004004 83 232 0.0 0.0 0.00 0.00 0.00 67 1012.7
20260903002004 84 232 0.0 0.0 0.00 0.00 0.00 67 1012.7
20260903001004 85 236 0.0 0.0 0.00 0.00 0.00 67 1012.6
20260903000004 86 236 0.0 0.0 0.00 0.00 0.00 64 1012.7
20260902235004 88 236 0.0 0.0 0.00 0.00 0.00 59 1012.7
20260902234004 89 236 0.0 0.0 0.00 0.00 0.00 57 1012.8
20260902233004 90 236 0.0 0.0 0.00 0.00 0.00 53 1012.8
20260902232004 91 236 0.0 0.0 0.00 0.00 0.00 54 1012.8
20260902230004 91 236 0.0 0.0 0.00 0.00 0.00 53 1012.9
20260902225004 92 236 0.0 0.0 0.00 0.00 0.00 53 1013.0
20260902224004 92 236 0.0 0.9 0.00 0.00 0.00 51 1013.0
20260902223004 92 236 0.0 0.9 0.00 0.00 0.00 52 1012.9
20260902222004 92 236 0.0 2.6 0.00 0.00 0.00 49 1013.0
20260902221004 92 26 0.0 0.9 0.00 0.00 0.00 48 1013.0
20260902214004 94 26 0.9 2.6 0.00 0.00 0.00 47 1013.1
20260902213004 95 32 0.9 2.6 0.00 0.00 0.00 44 1013.1
20260902210004 96 18 0.9 2.6 0.00 0.00 0.00 41 1013.3
20260902205003 96 5 0.0 1.7 0.00 0.00 0.00 44 1013.3
20260902203003 96 191 0.9 2.6 0.00 0.00 0.00 42 1013.4
20260902202004 95 280 0.9 2.6 0.00 0.00 0.00 41 1013.7
20260902201004 95 229 2.6 5.2 0.00 0.00 0.00 43 1013.7
20260902200004 96 0 0.9 2.6 0.00 0.00 0.00 43 1013.8
20260902195004 97 253 2.6 4.3 0.00 0.00 0.00 44 1013.9
20260902194004 96 277 1.7 2.6 0.00 0.00 0.00 43 1014.0
20260902193004 95 102 2.6 4.3 0.00 0.00 0.00 41 1014.1
20260902191004 95 193 2.6 4.3 0.00 0.00 0.00 42 1014.4
20260902190004 95 153 0.9 2.6 0.00 0.00 0.00 44 1014.4
20260902185004 94 244 1.7 2.6 0.00 0.00 0.00 46 1014.4
20260902184003 94 281 1.7 5.2 0.00 0.00 0.00 47 1014.6
20260902183004 93 105 1.7 4.3 0.00 0.00 0.00 46 1014.6
20260902182004 92 225 1.7 2.6 0.00 0.00 0.00 51 1014.7
20260902181004 93 219 1.7 4.3 0.00 0.00 0.00 47 1014.8
20260902180006 94 265 2.6 5.2 0.00 0.00 0.00 51 1014.9
20260902174004 93 343 0.0 4.3 0.00 0.00 0.00 50 1015.0
20260902172004 92 250 0.9 4.3 0.00 0.00 0.00 51 1015.4
20260902171004 92 238 3.5 4.3 0.00 0.00 0.00 52 1015.5
20260902170004 92 219 0.9 2.6 0.00 0.00 0.00 54 1015.7
20260902165004 92 30 1.7 4.3 0.00 0.00 0.00 51 1015.8
20260902164003 91 268 1.7 5.2 0.00 0.00 0.00 55 1015.9
20260902163004 91 201 0.9 2.6 0.00 0.00 0.00 52 1016.0
20260902162004 89 171 0.9 4.3 0.00 0.00 0.00 56 1016.0
20260902155003 87 47 1.7 2.6 0.00 0.00 0.00 62 1016.1
20260902154003 86 240 1.7 2.6 0.00 0.00 0.00 66 1016.2
20260902153003 85 223 1.7 2.6 0.00 0.00 0.00 66 1016.3
20260902151003 85 273 1.7 4.3 0.00 0.00 0.00 65 1016.1
20260902150005 85 249 0.9 4.3 0.00 0.00 0.00 65 1016.1
20260902144005 83 222 2.6 4.3 0.00 0.00 0.00 68 1016.0
20260902143005 83 248 1.7 2.6 0.00 0.00 0.00 72 1016.0
20260902141005 82 244 0.9 2.6 0.00 0.00 0.00 72 1016.0
20260902140004 81 252 1.7 2.6 0.00 0.00 0.00 72 1016.0
20260902135004 81 188 0.9 1.7 0.00 0.00 0.00 75 1016.0
20260902134005 81 291 0.0 0.9 0.00 0.00 0.00 80 1016.0
20260902130005 76 196 0.0 0.0 0.00 0.00 0.00 99 1016.0
20260902125005 74 196 0.9 0.9 0.00 0.00 0.00 100 1016.0
20260902124005 73 196 0.0 0.9 0.00 0.00 0.00 100 1015.9
20260902122004 72 196 0.0 0.0 0.00 0.00 0.00 100 1015.9
20260902121005 71 196 0.0 0.9 0.00 0.00 0.00 100 1015.7
20260902120005 71 196 0.0 0.0 0.00 0.00 0.00 100 1015.6
20260902115004 71 196 0.0 0.0 0.00 0.00 0.00 100 1015.5
20260902114005 70 196 0.0 0.9 0.00 0.00 0.00 100 1015.4
20260902113005 70 196 0.0 0.0 0.00 0.00 0.00 100 1015.1
20260902112004 70 196 0.0 0.0 0.00 0.00 0.00 100 1015.0
20260902111005 70 196 0.0 0.0 0.00 0.00 0.00 100 1014.9
20260902110007 70 196 0.0 0.9 0.00 0.00 0.00 100 1014.9
20260902105005 71 196 0.0 0.9 0.00 0.00 0.00 100 1014.7
20260902104005 71 196 0.9 0.9 0.00 0.00 0.00 100 1014.6
20260902103005 71 196 0.0 0.0 0.00 0.00 0.00 100 1014.5